Tracking 30685 objects as of 19-Jun-2025
HD Live streaming from Space Station
objects crossing your sky now

STARLINK-32275

Track STARLINK-32275 now!
10-day predictions
STARLINK-32275 is classified as:


NORAD ID: 60360
Int'l Code: 2024-138F
Perigee: 481.3 km
Apogee: 483.4 km
Inclination: 53.2 °
Period: 94.1 minutes
Semi major axis: 6853 km
RCS: Unknown
Launch date: August 4, 2024
Source: United States (US)
Launch site: AIR FORCE WESTERN TEST RANGE (AFWTR)
Your satellite tracking list
Your tracking list is empty




NASA's NSSDC Master Catalog

Two Line Element Set (TLE):
1 60360U 24138F   25169.53164417 -.00001066  00000-0 -23870-4 0  9996
2 60360  53.1606  96.6035 0001521  94.2458 265.8717 15.30198495 50183
Source of the keplerian elements: AFSPC